Osoyoos, British Columbia

9:14 PM PDT on May 25, 2017 (GMT -0700)
Osoyoos

Weather History for CWYY - April, 2013

Change the Weather History Date:

Thursday, April 11, 2013

  Actual Average (KOMK) Record (KOMK)
Temperature  
Mean Temperature 48 °F 49 °F  
Max Temperature 57 °F 62 °F 80 °F (1943)
Min Temperature 38 °F 36 °F 24 °F (1975)
Degree Days  
Heating Degree Days 18 16  
Month to date heating degree days 186  
Since 1 July heating degree days 5776  
Cooling Degree Days 0 0  
Month to date cooling degree days 0  
Year to date cooling degree days 0  
Moisture  
Dew Point 32 °F    
Average Humidity 55    
Maximum Humidity 75    
Minimum Humidity 26    
Precipitation  
Precipitation 0.00 in 0.03 in 0.39 in (2005)
Month to date precipitation 0.36  
Year to date precipitation 4.85  
Sea Level Pressure  
Sea Level Pressure 30.09 in    
Wind  
Wind Speed 4 mph ()    
Max Wind Speed 14 mph    
Max Gust Speed 21 mph    
T = Trace of Precipitation, MM = Missing Value Source: Averaged Metar Reports

Daily Weather History Graph

Daily Weather History Graph

Search for Another Location

Airport or City:

Trip Planner

Search our weather history database for the weather conditions in past years. The results will help you decide how hot, cold, wet, or windy it might be!

Date:

Astronomy

Apr. 11, 2013 Rise Set
Actual Time 6:13 AM PDT 7:44 PM PDT
Civil Twilight 5:40 AM PDT 8:17 PM PDT
Nautical Twilight 5:00 AM PDT 8:57 PM PDT
Astronomical Twilight 4:17 AM PDT 9:41 PM PDT
Moon 6:40 AM PDT (4/11) 9:33 PM PDT (4/11)
Length of Visible Light 14h 36m
Length of Day
13h 30m
New Moon, 2% of the Moon is Illuminated
Apr 11
New Moon
Apr 18
First Quarter
Apr 25
Full
May 2
Last Quarter
May 9
New

Hourly Weather History & Observations

Time (PDT) Temp. Windchill Dew Point Humidity Pressure Visibility Wind Dir Wind Speed Gust Speed Precip Events Conditions
12:00 AM 44.8 °F - 31.5 °F 60% 30.04 in - NNW 2.3 mph - N/A   Unknown
1:00 AM 41.9 °F - 31.5 °F 66% 30.06 in - NNW 1.2 mph - N/A   Unknown
2:00 AM 42.6 °F - 31.5 °F 65% 30.05 in - ESE 2.3 mph - N/A   Unknown
3:00 AM 39.7 °F - 31.6 °F 73% 30.04 in - SE 1.2 mph - N/A   Unknown
4:00 AM 42.1 °F 40.2 °F 30.9 °F 65% 30.03 in - SE 3.5 mph - N/A   Unknown
5:00 AM 40 °F - 30 °F 58% 30.05 in - North 2.3 mph - -  
5:00 AM 40.3 °F - 30.2 °F 67% 30.05 in - North 2.3 mph - N/A   Unknown
6:00 AM 39.4 °F 37.2 °F 31.3 °F 73% 30.06 in - SE 3.5 mph - N/A   Unknown
7:00 AM 40.5 °F - 33.1 °F 75% 30.08 in - South 2.3 mph - N/A   Unknown
8:00 AM 42.4 °F - 34.7 °F 74% 30.10 in - NNE 2.3 mph - N/A   Unknown
9:00 AM 46.2 °F - 34.0 °F 62% 30.10 in - SE 1.2 mph - N/A   Unknown
10:00 AM 47.7 °F - 33.3 °F 57% 30.09 in - SSW 3.5 mph - N/A   Unknown
11:00 AM 50 °F - 36 °F 49% 30.10 in - SSE 1.2 mph - -  
11:00 AM 49.8 °F - 36.5 °F 60% 30.10 in - SSE 1.2 mph - N/A   Unknown
12:00 PM 52.3 °F - 33.4 °F 49% 30.11 in - NW 9.2 mph 17.3 mph N/A   Unknown
1:00 PM 53.4 °F - 33.4 °F 47% 30.10 in - NW 10.4 mph 19.6 mph N/A   Unknown
2:00 PM 54.7 °F - 30.9 °F 40% 30.09 in - WNW 9.2 mph - N/A   Unknown
3:00 PM 55.8 °F - 31.3 °F 39% 30.09 in - NW 9.2 mph 18.4 mph N/A   Unknown
4:00 PM 55.6 °F - 30.0 °F 38% 30.07 in - NW 10.4 mph 18.4 mph N/A   Unknown
5:00 PM 55 °F - 30 °F 26% 30.07 in - NW 13.8 mph - -  
5:00 PM 54.7 °F - 29.8 °F 39% 30.07 in - NW 13.8 mph 20.7 mph N/A   Unknown
6:00 PM 54.3 °F - 30.6 °F 40% 30.09 in - NW 9.2 mph - N/A   Unknown
7:00 PM 52.9 °F - 30.7 °F 43% 30.09 in - NNW 9.2 mph - N/A   Unknown
8:00 PM 50.2 °F - 31.3 °F 48% 30.11 in - WNW 5.8 mph - N/A   Unknown
9:00 PM 48.4 °F - 31.6 °F 52% 30.13 in - NW 5.8 mph - N/A   Unknown
10:00 PM 47.1 °F - 33.3 °F 59% 30.13 in - NW 8.1 mph - N/A   Unknown
11:00 PM 45 °F - 34 °F 55% 30.14 in - NNW 2.3 mph - -  
11:00 PM 44.6 °F - 34.0 °F 66% 30.14 in - NNW 2.3 mph - N/A   Unknown